When you browse on this site, cookies collect data to enhance your experience and personalize the content and advertising you see.
Visit our Privacy Policy to learn more. By continuing to use the site, you agree to this use of cookies and data.
  • In United Kingdom
  • List of Countries
  • For 7 days
  • Water Temperature
  • Weather Map
  • Weather Widgets
  • user-avatar
    Login

    Hourly Weather Blackpool

    Today, 1 June, Monday

    Time Temperature Precipitation Wind Pressure Humidity
    00:00 +12°C° 0 mm 5 mps 769 mmHg 73%
    01:00 +12°C° 0 mm 4 mps 769 mmHg 75%
    02:00 +11°C° 0 mm 4 mps 769 mmHg 78%
    03:00 +10°C° 0 mm 3 mps 769 mmHg 81%
    04:00 +11°C° 0 mm 3 mps 769 mmHg 79%
    05:00 +12°C° 0 mm 3 mps 769 mmHg 76%
    06:00 +13°C° 0 mm 3 mps 769 mmHg 77%
    07:00 +14°C° 0 mm 3 mps 769 mmHg 71%
    08:00 +17°C° 0 mm 3 mps 769 mmHg 65%
    09:00 +18°C° 0 mm 3 mps 769 mmHg 59%
    10:00 +19°C° 0 mm 3 mps 769 mmHg 57%
    11:00 +20°C° 0 mm 3 mps 769 mmHg 56%
    12:00 +21°C° 0 mm 3 mps 768 mmHg 53%
    13:00 +22°C° 0 mm 4 mps 768 mmHg 54%
    14:00 +22°C° 0 mm 4 mps 768 mmHg 54%
    15:00 +22°C° 0 mm 5 mps 768 mmHg 55%
    16:00 +21°C° 0 mm 5 mps 768 mmHg 59%
    17:00 +21°C° 0 mm 4 mps 768 mmHg 62%
    18:00 +20°C° 0 mm 4 mps 768 mmHg 66%
    19:00 +19°C° 0 mm 4 mps 768 mmHg 71%
    20:00 +17°C° 0 mm 4 mps 768 mmHg 77%
    21:00 +14°C° 0 mm 4 mps 768 mmHg 82%
    22:00 +13°C° 0 mm 4 mps 768 mmHg 81%
    23:00 +13°C° 0 mm 3 mps 768 mmHg 79%

    Tomorrow, 2 June, Tuesday

    Time Temperature Precipitation Wind Pressure Humidity
    00:00 +12°C° 0 mm 3 mps 768 mmHg 77%
    01:00 +11°C° 0 mm 3 mps 768 mmHg 76%
    02:00 +12°C° 0 mm 2 mps 768 mmHg 74%
    03:00 +12°C° 0 mm 2 mps 767 mmHg 72%
    04:00 +12°C° 0 mm 2 mps 767 mmHg 71%
    05:00 +13°C° 0 mm 2 mps 767 mmHg 70%
    06:00 +13°C° 0 mm 2 mps 767 mmHg 68%
    07:00 +15°C° 0 mm 1 mps 767 mmHg 63%
    08:00 +16°C° 0 mm 1 mps 766 mmHg 59%
    09:00 +17°C° 0 mm 0 mps 766 mmHg 54%
    10:00 +20°C° 0 mm 1 mps 766 mmHg 55%
    11:00 +19°C° 0 mm 2 mps 765 mmHg 55%
    12:00 +20°C° 0 mm 2 mps 765 mmHg 56%
    13:00 +20°C° 0 mm 3 mps 764 mmHg 58%
    14:00 +20°C° 0 mm 3 mps 764 mmHg 61%
    15:00 +20°C° 0 mm 4 mps 763 mmHg 63%
    16:00 +19°C° 0 mm 4 mps 763 mmHg 65%
    17:00 +18°C° 0 mm 4 mps 762 mmHg 67%
    18:00 +18°C° 0 mm 4 mps 762 mmHg 70%
    19:00 +17°C° 0 mm 3 mps 762 mmHg 72%
    20:00 +16°C° 0 mm 3 mps 761 mmHg 74%
    21:00 +14°C° 0 mm 3 mps 761 mmHg 77%
    22:00 +14°C° 0 mm 3 mps 761 mmHg 78%
    23:00 +14°C° 0 mm 4 mps 760 mmHg 80%

    Day after tomorrow, 3 June, Wednesday

    Time Temperature Precipitation Wind Pressure Humidity
    00:00 +14°C° 0 mm 4 mps 760 mmHg 81%
    01:00 +14°C° 0 mm 4 mps 760 mmHg 83%
    02:00 +13°C° 0 mm 5 mps 759 mmHg 85%
    03:00 +13°C° 0 mm 5 mps 759 mmHg 87%
    04:00 +13°C° 0.5 mm 5 mps 759 mmHg 89%
    05:00 +13°C° 0.5 mm 6 mps 759 mmHg 90%
    06:00 +11°C° 0.5 mm 6 mps 758 mmHg 92%
    07:00 +11°C° 0.3 mm 6 mps 759 mmHg 90%
    08:00 +12°C° 0.3 mm 7 mps 759 mmHg 87%
    09:00 +12°C° 0.3 mm 7 mps 759 mmHg 84%
    10:00 +12°C° 0 mm 7 mps 759 mmHg 80%
    11:00 +14°C° 0 mm 7 mps 759 mmHg 76%
    12:00 +14°C° 0 mm 6 mps 759 mmHg 73%
    13:00 +15°C° 0.1 mm 6 mps 759 mmHg 71%
    14:00 +15°C° 0.1 mm 5 mps 759 mmHg 69%
    15:00 +16°C° 0.1 mm 5 mps 759 mmHg 67%
    16:00 +15°C° 0.1 mm 6 mps 759 mmHg 69%
    17:00 +14°C° 0.1 mm 7 mps 759 mmHg 72%
    18:00 +12°C° 0.1 mm 7 mps 759 mmHg 74%
    19:00 +11°C° 0 mm 7 mps 759 mmHg 75%
    20:00 +10°C° 0 mm 6 mps 759 mmHg 76%
    21:00 +10°C° 0 mm 6 mps 759 mmHg 77%
    22:00 +9°C° 0 mm 5 mps 759 mmHg 77%
    23:00 +8°C° 0 mm 4 mps 759 mmHg 78%

    4 June, Thursday

    Time Temperature Precipitation Wind Pressure Humidity
    00:00 +9°C° 0 mm 3 mps 759 mmHg 79%
    01:00 +8°C° 0 mm 3 mps 758 mmHg 80%
    02:00 +7°C° 0 mm 3 mps 758 mmHg 82%
    03:00 +7°C° 0 mm 2 mps 757 mmHg 84%
    04:00 +7°C° 0 mm 2 mps 757 mmHg 81%
    05:00 +8°C° 0 mm 2 mps 756 mmHg 78%
    06:00 +8°C° 0 mm 2 mps 756 mmHg 75%
    07:00 +9°C° 0 mm 2 mps 755 mmHg 72%
    08:00 +10°C° 0 mm 2 mps 755 mmHg 69%
    09:00 +10°C° 0 mm 2 mps 755 mmHg 66%
    10:00 +11°C° 0 mm 3 mps 754 mmHg 65%
    11:00 +12°C° 0 mm 4 mps 754 mmHg 64%
    12:00 +13°C° 0 mm 5 mps 754 mmHg 63%
    13:00 +13°C° 0.1 mm 5 mps 753 mmHg 65%
    14:00 +14°C° 0.1 mm 6 mps 753 mmHg 66%
    15:00 +14°C° 0.1 mm 6 mps 752 mmHg 68%
    16:00 +13°C° 0.5 mm 6 mps 752 mmHg 73%
    17:00 +11°C° 0.5 mm 6 mps 752 mmHg 77%
    18:00 +11°C° 0.5 mm 6 mps 752 mmHg 82%
    19:00 +9°C° 0.1 mm 5 mps 752 mmHg 83%
    20:00 +8°C° 0.1 mm 4 mps 753 mmHg 85%
    21:00 +8°C° 0.1 mm 3 mps 753 mmHg 86%
    22:00 +7°C° 0 mm 3 mps 753 mmHg 85%
    23:00 +7°C° 0 mm 3 mps 753 mmHg 84%

    5 June, Friday

    Time Temperature Precipitation Wind Pressure Humidity
    00:00 +6°C° 0 mm 2 mps 753 mmHg 83%
    01:00 +6°C° 0 mm 2 mps 753 mmHg 83%
    02:00 +6°C° 0 mm 2 mps 753 mmHg 82%
    03:00 +5°C° 0 mm 2 mps 753 mmHg 82%
    04:00 +6°C° 0 mm 2 mps 753 mmHg 80%
    05:00 +8°C° 0 mm 2 mps 752 mmHg 79%
    06:00 +9°C° 0 mm 3 mps 752 mmHg 77%
    07:00 +10°C° 0 mm 4 mps 752 mmHg 74%
    08:00 +10°C° 0 mm 5 mps 752 mmHg 71%
    09:00 +13°C° 0 mm 6 mps 752 mmHg 68%
    10:00 +12°C° 0 mm 7 mps 751 mmHg 65%
    11:00 +12°C° 0 mm 8 mps 751 mmHg 62%
    12:00 +12°C° 0 mm 9 mps 751 mmHg 59%
    13:00 +12°C° 0 mm 9 mps 750 mmHg 61%
    14:00 +12°C° 0 mm 8 mps 750 mmHg 63%
    15:00 +12°C° 0 mm 8 mps 750 mmHg 65%
    16:00 +11°C° 0.2 mm 7 mps 749 mmHg 71%
    17:00 +11°C° 0.2 mm 6 mps 749 mmHg 78%
    18:00 +10°C° 0.2 mm 5 mps 749 mmHg 84%
    19:00 +10°C° 0.3 mm 5 mps 749 mmHg 86%
    20:00 +9°C° 0.3 mm 5 mps 749 mmHg 88%
    21:00 +9°C° 0.3 mm 5 mps 750 mmHg 89%
    22:00 +9°C° 0.1 mm 5 mps 750 mmHg 89%
    23:00 +9°C° 0.1 mm 5 mps 750 mmHg 89%

    6 June, Saturday

    Time Temperature Precipitation Wind Pressure Humidity
    00:00 +9°C° 0.1 mm 5 mps 750 mmHg 89%
    01:00 +8°C° 0.3 mm 5 mps 750 mmHg 88%
    02:00 +8°C° 0.3 mm 5 mps 750 mmHg 88%
    03:00 +8°C° 0.3 mm 5 mps 751 mmHg 87%
    04:00 +8°C° 0.2 mm 6 mps 751 mmHg 85%
    05:00 +7°C° 0.2 mm 8 mps 751 mmHg 82%
    06:00 +7°C° 0.2 mm 9 mps 751 mmHg 80%
    07:00 +8°C° 0 mm 9 mps 751 mmHg 73%
    08:00 +8°C° 0 mm 9 mps 751 mmHg 66%
    09:00 +10°C° 0 mm 9 mps 752 mmHg 60%
    10:00 +9°C° 0.2 mm 10 mps 752 mmHg 58%
    11:00 +11°C° 0.2 mm 11 mps 751 mmHg 56%
    12:00 +10°C° 0.2 mm 12 mps 751 mmHg 54%
    13:00 +10°C° 0 mm 12 mps 751 mmHg 55%
    14:00 +9°C° 0 mm 13 mps 751 mmHg 56%
    15:00 +9°C° 0 mm 13 mps 751 mmHg 56%
    16:00 +9°C° 0.1 mm 13 mps 751 mmHg 59%
    17:00 +8°C° 0.1 mm 13 mps 751 mmHg 62%
    18:00 +8°C° 0.1 mm 13 mps 752 mmHg 65%
    19:00 +7°C° 0.1 mm 13 mps 752 mmHg 68%
    20:00 +7°C° 0.1 mm 13 mps 752 mmHg 70%
    21:00 +7°C° 0.1 mm 13 mps 752 mmHg 73%
    22:00 +5°C° 0.2 mm 13 mps 752 mmHg 75%
    23:00 +5°C° 0.2 mm 13 mps 752 mmHg 76%
    Show more